User: anonymous   Login
Location: Daybis Observatory
(33.4273°N, 88.8061°W)
Time: 08:43:34
(UTC-05:00)
Language:

Coronas F rocket - Orbit

View from above orbital plane
View from above orbital plane
View from above satellite
View from above satellite

Ground track
Ground track

The orbit data is extracted from the following two-line orbital elements,

1 26874U 01032B   15088.16044435  .00033297  00000-0  38099-3 0  9998
2 26874 082.4683 042.8687 0015080 084.3410 275.9567 15.61831411765627
Epoch (UTC): 29 March 2015 03:51:02
Eccentricity: 0.0015080
inclination: 82.4683°
perigee height: 372 km
apogee height: 392 km
right ascension of ascending node: 42.8687°
argument of perigee: 84.3410°
revolutions per day: 15.61831411
mean anomaly at epoch: 275.9567°
orbit number at epoch: 76562

The dashed part of the orbit path shows where the satellite is in the earth's shadow,  

DLR